Flag for Germany Weather past 2 weeks in Willich, North Rhine-Westphalia, Germany

Now
45 °F

Scattered showers. Passing clouds.


Feels Like: 38 °F
Forecast: 37 / 47 °F
Wind: 13 mph from West

Location: Monchengladbach Airport

Current Time: Mar 4, 2015 at 2:58:22 PM

Latest Report: Mar 4, 2015 at 2:20 PM


Visibility: N/A

Pressure: 30.27 "Hg

Humidity: 71%

Dew point: 36 °F

Location of WillichLocation

Historic Weather in Willich — Graph

°F

Willich temperature yesterday

Maximum temperature yesterday: 50 °F (at 1:50 PM)
Minimum temperature yesterday: 37 °F (at 4:50 PM)
Average temperature yesterday: 43 °F

Past Weeks' High & Low Weather Summary

 TemperatureHumidityPressure
High52 °F (Mar 1, 10:20 AM)100% (Feb 17, 1:20 PM)30.77 "Hg (Feb 17, 1:20 PM)
Low30 °F (Feb 28, 7:20 AM)50% (Feb 28, 4:50 PM)29.45 "Hg (Feb 21, 8:20 AM)
Average42 °F79%29.97 "Hg
* Reported Feb 17 1:20 PM — Mar 4 1:20 PM, Willich, Weather by CustomWeather, © 2015

Note: Actual official high and low records may vary slightly from our data, if they occured in-between our weather recording intervals... More about our weather records

Advertising

Willich weather history for previous 24 hours

 ConditionsComfort  
Time TempWeatherWind HumidityBarometerVisibility
1:20 PM
Wed, Mar 4
46 °FPassing clouds.21 mph62%30.27 "HgN/A
12:50 PM45 °FPartly cloudy.14 mph66%30.27 "HgN/A
12:20 PM45 °FPassing clouds.10 mph71%30.27 "HgN/A
11:50 AM43 °FPassing clouds.12 mph76%30.24 "HgN/A
11:20 AM43 °FPassing clouds.8 mph76%30.24 "HgN/A
10:50 AM43 °FPassing clouds.10 mph71%30.24 "HgN/A
10:20 AM41 °FPassing clouds.12 mph76%30.24 "HgN/A
9:50 AM41 °FPassing clouds.9 mph76%30.21 "HgN/A
9:20 AM39 °FPassing clouds.8 mph81%30.21 "HgN/A
8:50 AM37 °FSunny.10 mph81%30.21 "Hg10 mi
8:20 AM37 °FSunny.7 mph81%30.21 "Hg10 mi
7:50 AM36 °FPassing clouds.7 mph87%30.18 "HgN/A
7:50 PM
Tue, Mar 3
41 °FPassing clouds.10 mph87%30.01 "HgN/A
7:20 PM41 °FPassing clouds.8 mph87%30.01 "HgN/A
6:50 PM41 °FPassing clouds.7 mph87%30.01 "HgN/A
6:20 PM41 °FScattered showers. Passing clouds.7 mph87%29.98 "HgN/A
5:50 PM41 °FClear.9 mph87%29.98 "Hg10 mi
5:20 PM41 °FPartly cloudy.12 mph93%29.98 "HgN/A
4:50 PM37 °FSprinkles. Passing clouds.14 mph100%29.98 "Hg5 mi
4:20 PM45 °FScattered showers. Passing clouds.12 mph87%29.98 "Hg5 mi
3:50 PM45 °FPartly cloudy.10 mph87%29.98 "HgN/A
3:20 PM43 °FLight rain. Passing clouds.12 mph87%29.98 "Hg4 mi
2:50 PM45 °FRain showers. Passing clouds.23 mph76%29.98 "Hg3 mi
2:20 PM48 °FSprinkles. Passing clouds.22 mph58%29.95 "Hg5 mi
Weather by CustomWeather, © 2015

See weather overviewHow to use our weather pages